Location: *
(40.7873°S, 98.7174°E)
Time: 20:58:53
(UTC+00:00)

Cosmos 1153 Rocket - Pass Details

Date: 12 October 2022
Orbit: 953 x 1007 km, 82.9° (Epoch: 05 December)

Event Time Altitude Azimuth Distance (km) Brightness Sun altitude
Rises 19:04:13 0° 190° (S) 3,675 8.1 -35.1°
Reaches altitude 10° 19:06:45 10° 191° (SSW) 2,718 7.3 -34.8°
Enters shadow 19:10:32 39° 201° (SSW) 1,410 5.4 -34.4°
